Temp
10 10 9 9 9 9 9 9 9 9 9 9 9 8 9 9 8 8 8 8 8 8 7 7 7 7 7 7 7 7 7 7 7
9 9 9 9 8 8 8 8 8 8 8 8 8 8 9 8 8 8 7 7 7 7 7 7 7 7 6 7 6 6 6 6 6
9 9 9 8 8 8 8 8 8 8 8 8 8 8 8 8 7 8 7 7 7 7 7 7 7 6 6 6 5 5 5 4 5
9 8 8 8 8 8 8 8 8 8 8 8 8 8 7 7 7 7 7 7 7 6 6 6 6 6 6 6 6 5 5 5 4
8 8 8 8 8 8 8 8 7 7 7 7 7 7 7 7 6 6 7 7 6 6 6 6 6 6 6 6 6 6 5 5 5
8 8 8 8 8 8 7 7 7 7 7 7 7 6 6 6 6 6 6 6 6 6 6 6 6 6 6 6 6 6 6 6 6
8 8 8 8 8 8 7 7 7 7 7 7 7 6 6 6 6 6 6 6 6 6 6 6 6 6 6 6 6 6 6 6 6
8 8 8 8 8 8 7 7 7 7 7 7 6 6 6 6 6 6 6 6 6 6 6 6 6 6 6 6 6 6 6 6 6
8 8 8 7 7 7 7 7 7 7 7 7 6 6 6 6 6 5 6 6 6 6 6 6 6 6 6 6 6 5 6 6 6
8 8 7 7 7 7 7 7 7 7 6 6 6 6 5 5 6 5 5 5 5 6 5 5 5 5 5 5 5 5 5 5 5
7 7 7 7 7 7 7 7 7 7 6 6 6 6 5 5 5 5 5 5 5 5 5 5 5 5 5 5 5 5 5 5 5
7 7 7 7 7 6 6 6 6 6 6 6 5 5 5 5 5 5 5 5 5 5 5 5 4 4 4 5 5 5 5 5 5
7 7 7 6 6 6 6 6 5 5 5 5 5 5 4 4 4 4 4 4 4 4 4 4 4 4 4 4 4 4 4 4 4
6 6 6 6 6 5 5 5 4 4 4 4 4 4 4 4 4 4 4 4 4 3 3 3 3 3 3 3 4 4 4 4 4
6 6 6 5 5 5 4 4 4 3 3 3 3 3 3 3 3 3 3 3 3 3 3 3 3 3 3 3 3 3 3 3 3
5 5 5 5 4 4 4 3 3 3 3 2 2 3 3 3 3 3 3 3 3 3 3 3 2 2 3 3 3 3 3 3 3
4 5 5 4 4 4 4 3 2 2 2 2 2 2 2 3 3 3 3 3 3 2 2 2 2 2 2 2 2 2 2 2 2
4 4 4 4 4 3 3 3 2 2 2 2 2 2 2 2 2 2 2 2 2 2 2 2 2 2 2 2 2 2 2 2 2
4 4 4 4 4 3 3 2 2 2 2 1 1 2 2 2 2 2 2 2 2 1 1 1 1 2 2 2 2 1 1 1 1
4 3 4 4 4 3 3 2 2 1 1 1 1 1 1 1 1 1 1 1 1 1 1 0 1 1 1 1 1 1 1 1 0
Height
3162 3161 3160 3160 3160 3159 3160 3160 3160 3160 3160 3160 3160 3160 3160 3160 3160 3160 3159 3158 3157 3157 3156 3156 3155 3155 3154 3153 3153 3154 3153 3152 3152
3162 3161 3161 3160 3160 3160 3159 3160 3160 3160 3159 3159 3159 3159 3159 3160 3159 3158 3157 3156 3155 3155 3155 3154 3154 3153 3152 3152 3152 3151 3151 3151 3151
3163 3162 3162 3161 3161 3161 3161 3161 3160 3160 3159 3159 3159 3158 3159 3158 3158 3157 3156 3155 3154 3153 3153 3152 3152 3151 3150 3150 3150 3149 3149 3149 3150
3163 3163 3162 3162 3162 3162 3161 3161 3161 3161 3160 3159 3158 3159 3158 3157 3156 3154 3154 3154 3152 3152 3151 3150 3149 3149 3148 3148 3147 3146 3146 3146 3147
3164 3163 3163 3163 3162 3162 3162 3161 3161 3160 3159 3158 3158 3158 3157 3156 3154 3153 3152 3152 3151 3150 3149 3148 3147 3146 3146 3145 3144 3144 3144 3143 3143
3164 3164 3163 3163 3162 3162 3161 3161 3160 3160 3159 3157 3157 3157 3155 3154 3153 3151 3150 3149 3149 3148 3146 3145 3143 3144 3143 3142 3141 3141 3140 3140 3139
3164 3163 3163 3162 3162 3161 3161 3160 3159 3159 3157 3156 3154 3155 3154 3152 3150 3149 3148 3147 3146 3146 3142 3141 3140 3140 3140 3138 3138 3137 3137 3136 3136
3162 3162 3162 3161 3161 3160 3159 3158 3157 3157 3156 3154 3152 3152 3151 3150 3149 3147 3145 3144 3143 3141 3140 3138 3138 3137 3137 3135 3134 3133 3133 3133 3132
3160 3160 3160 3159 3159 3159 3158 3156 3155 3154 3153 3152 3150 3150 3149 3148 3146 3145 3143 3141 3139 3138 3137 3136 3135 3134 3133 3132 3131 3130 3130 3129 3129
3156 3158 3157 3156 3157 3156 3155 3154 3153 3152 3151 3149 3147 3147 3146 3145 3144 3142 3139 3137 3136 3135 3134 3133 3131 3131 3130 3129 3127 3126 3126 3125 3124
3153 3154 3153 3154 3154 3153 3152 3152 3150 3149 3148 3147 3145 3143 3143 3142 3140 3139 3137 3135 3133 3132 3130 3129 3128 3126 3125 3124 3123 3122 3121 3120 3119
3149 3150 3150 3150 3150 3150 3149 3148 3147 3145 3144 3143 3142 3140 3140 3138 3137 3135 3133 3132 3130 3128 3127 3125 3124 3121 3120 3120 3119 3117 3116 3115 3114
3145 3145 3146 3146 3146 3145 3144 3143 3142 3141 3140 3140 3138 3137 3136 3136 3134 3132 3131 3129 3128 3125 3123 3121 3119 3118 3116 3114 3113 3112 3111 3109 3108
3141 3141 3141 3142 3141 3140 3139 3138 3137 3137 3136 3136 3135 3134 3133 3132 3131 3129 3127 3126 3124 3122 3120 3117 3116 3114 3111 3109 3107 3105 3103 3102 3100
3135 3136 3136 3136 3136 3135 3134 3134 3133 3133 3133 3133 3132 3131 3129 3128 3127 3126 3124 3122 3121 3118 3116 3113 3111 3108 3105 3103 3101 3099 3096 3095 3093
3129 3130 3130 3131 3131 3130 3130 3130 3129 3129 3129 3129 3128 3126 3125 3124 3123 3121 3120 3118 3116 3114 3111 3108 3105 3102 3099 3096 3094 3092 3089 3087 3085
3125 3125 3125 3125 3126 3126 3125 3125 3125 3125 3125 3124 3123 3122 3122 3119 3118 3116 3115 3113 3111 3108 3106 3102 3098 3096 3093 3089 3086 3084 3082 3079 3076
3119 3119 3120 3120 3120 3120 3120 3120 3120 3121 3120 3119 3118 3117 3116 3115 3113 3111 3109 3107 3104 3101 3098 3094 3091 3088 3085 3082 3079 3075 3072 3069 3066
3112 3113 3114 3114 3114 3114 3115 3115 3114 3113 3115 3114 3112 3111 3110 3108 3107 3105 3103 3100 3097 3094 3090 3086 3082 3079 3076 3073 3070 3067 3064 3060 3057
3105 3107 3108 3108 3108 3108 3109 3109 3108 3109 3108 3107 3106 3105 3104 3102 3100 3099 3096 3094 3090 3087 3083 3078 3073 3069 3065 3062 3059 3056 3053 3050 3047
Wind_Speed
5 3 1 1 0 1 1 0 1 2 3 4 5 5 7 8 8 10 9 9 9 9 10 9 9 9 9 9 8 8 7 7 7
7 7 5 3 2 1 1 1 2 3 4 5 6 6 8 7 7 7 8 7 8 8 9 9 10 10 10 10 9 8 8 8 7
7 7 7 6 5 4 3 2 1 2 3 5 6 6 6 7 7 7 7 8 9 10 10 10 11 11 11 10 6 5 3 3 5
5 6 6 6 5 4 3 2 3 4 5 7 8 8 8 8 9 9 9 9 10 11 11 11 12 12 13 12 12 13 13 13 12
5 5 5 5 5 4 4 5 5 6 7 8 8 8 8 9 10 10 11 10 11 12 13 13 14 15 14 15 15 15 15 15 16
4 5 5 4 5 5 6 6 7 8 9 10 11 9 9 10 11 12 13 13 12 13 15 17 17 15 15 15 15 16 16 16 17
5 6 5 5 6 7 7 8 8 9 10 11 13 11 11 11 13 14 15 16 15 14 16 17 17 15 15 15 16 16 16 16 16
8 8 8 7 7 7 8 9 9 10 11 13 14 13 13 13 13 15 17 18 16 15 17 17 17 16 16 15 16 16 16 16 16
11 11 9 10 10 9 11 11 12 12 13 13 14 14 14 15 15 16 17 18 17 16 16 17 17 17 17 17 16 17 17 17 18
14 14 12 13 13 12 13 14 15 15 16 15 16 15 14 15 16 17 17 17 16 17 16 16 17 17 17 18 19 19 19 19 20
17 15 14 15 15 14 15 15 16 17 17 17 18 17 15 15 15 16 16 17 17 17 17 18 18 19 19 20 21 21 21 22 23
17 16 15 17 17 17 18 18 19 19 19 19 19 19 17 15 15 15 16 17 17 18 19 19 20 22 22 23 24 25 25 26 26
18 18 19 20 21 21 22 21 21 21 21 20 20 20 18 16 14 14 15 16 17 18 19 20 22 24 26 27 28 28 29 29 30
20 21 22 23 23 22 20 19 20 20 20 20 20 19 18 16 15 14 15 16 18 19 21 23 24 26 28 29 30 31 31 32 33
22 23 23 24 21 19 20 19 19 18 17 19 20 19 18 17 15 15 15 17 19 21 23 25 26 28 30 32 33 33 34 34 35
21 23 23 23 21 20 20 19 17 18 18 21 21 20 19 19 17 17 18 19 21 23 25 26 28 30 32 33 35 35 36 37 38
23 22 23 23 23 21 21 20 19 19 21 23 23 22 20 20 19 20 21 23 25 27 28 30 31 33 34 35 36 37 38 39 40
24 23 24 25 25 23 22 23 21 21 23 24 23 23 23 22 22 22 24 26 28 30 32 34 36 37 37 37 38 38 39 39 40
28 25 25 26 26 28 26 26 22 24 25 25 23 26 26 25 25 25 27 29 31 33 35 37 40 41 40 40 40 40 39 38 40
33 28 27 26 29 30 30 29 28 29 29 26 29 30 29 27 27 28 30 32 34 36 38 40 42 43 43 43 43 41 40 41 43
Wind_Direction
26 26 19 355 19 351 1 299 266 280 286 293 296 299 298 297 304 294 295 294 295 298 301 306 304 307 305 307 305 305 308 299 287
37 42 48 49 47 36 13 330 302 300 302 297 299 302 308 317 309 301 301 306 304 303 302 305 305 307 305 300 298 295 297 292 289
31 44 47 53 60 62 60 37 6 339 315 306 308 313 321 314 304 303 310 311 311 309 309 308 307 302 299 302 304 301 306 4 308
29 38 40 39 38 31 22 4 340 329 320 315 315 318 314 312 307 308 307 305 303 304 305 302 298 296 296 295 287 279 271 267 267
21 32 37 32 34 22 1 344 333 319 316 306 304 317 316 312 310 311 308 308 305 307 306 298 293 294 293 289 282 278 275 272 270
351 3 9 9 12 2 351 337 327 318 316 310 314 321 319 314 312 309 309 308 304 304 299 296 295 293 291 287 283 280 279 277 276
306 322 331 338 343 346 341 334 330 320 316 310 313 321 320 317 313 311 309 305 307 305 296 293 292 292 288 286 284 283 281 279 278
279 291 302 311 313 323 317 317 318 316 316 311 312 316 318 315 312 310 308 306 308 303 297 296 294 292 290 286 283 282 280 280 279
270 276 282 288 296 306 305 306 306 308 309 305 304 312 315 313 311 307 304 304 305 300 298 297 296 294 291 289 285 283 281 280 278
264 268 267 278 289 300 301 301 303 304 304 303 302 305 305 306 307 306 305 304 303 302 298 296 294 292 290 286 285 284 282 281 280
261 260 264 276 285 291 294 297 299 298 296 293 292 294 298 303 304 305 304 302 302 299 297 294 292 290 287 284 283 283 282 281 282
259 261 269 276 282 288 292 297 296 290 287 285 287 290 293 296 302 304 304 305 303 303 298 295 292 288 287 286 283 282 281 281 280
259 265 272 277 281 287 292 296 290 282 281 279 281 286 292 294 297 301 305 308 308 306 305 301 295 293 291 287 285 284 284 283 282
263 271 274 277 281 286 290 290 286 280 279 279 279 282 286 289 292 299 306 311 311 312 310 306 303 299 296 293 291 289 287 286 286
261 268 274 275 275 281 288 287 283 281 281 283 283 282 283 285 292 299 305 308 311 313 312 310 306 303 300 297 295 292 291 288 287
257 263 272 274 272 277 285 284 276 281 281 282 283 277 280 284 290 297 301 305 308 309 311 309 306 303 300 298 295 293 292 291 289
256 258 271 267 267 276 285 285 274 285 280 288 281 272 274 278 285 290 297 302 306 308 309 309 307 304 302 299 296 294 293 291 290
255 261 266 265 267 271 279 282 276 274 281 282 276 272 272 276 282 291 298 302 305 307 310 309 308 305 302 298 295 293 291 290 289
257 261 268 270 267 269 271 277 277 255 283 278 274 273 273 277 283 289 296 301 305 308 310 308 306 305 302 299 296 294 291 288 287
256 261 269 275 271 269 267 271 271 262 278 271 278 274 271 276 282 288 296 300 306 308 308 306 305 303 301 299 297 294 292 291 289